• In Uzbekistan
  • List of Countries
  • For 7 days
  • Water Temperature
  • Satellite Maps
  • Weather Map
  • Weather Widgets
  • user-avatar
    Login

    Hourly Weather Fier

    Today, 17 January, Tuesday

    Time Temperature Precipitation Wind Pressure Humidity
    00:00 +3°C° 0.4 mm 6 mps 754 mmHg 87%
    01:00 +3°C° 0.4 mm 6 mps 754 mmHg 87%
    02:00 +3°C° 0.5 mm 6 mps 754 mmHg 87%
    03:00 +3°C° 0.5 mm 6 mps 754 mmHg 87%
    04:00 +3°C° 0.5 mm 5 mps 754 mmHg 88%
    05:00 +3°C° 0.3 mm 5 mps 755 mmHg 87%
    06:00 +2°C° 0.3 mm 5 mps 755 mmHg 87%
    07:00 +2°C° 0.3 mm 5 mps 755 mmHg 87%
    08:00 +3°C° 0.1 mm 5 mps 756 mmHg 85%
    09:00 +5°C° 0.1 mm 5 mps 756 mmHg 82%
    10:00 +7°C° 0.1 mm 5 mps 756 mmHg 80%
    11:00 +7°C° 0.1 mm 5 mps 756 mmHg 80%
    12:00 +8°C° 0.1 mm 5 mps 756 mmHg 81%
    13:00 +8°C° 0.1 mm 5 mps 756 mmHg 81%
    14:00 +7°C° 0.1 mm 4 mps 756 mmHg 82%
    15:00 +7°C° 0.1 mm 4 mps 756 mmHg 83%
    16:00 +7°C° 0.1 mm 4 mps 756 mmHg 85%
    17:00 +6°C° 0.1 mm 4 mps 756 mmHg 85%
    18:00 +5°C° 0.1 mm 5 mps 756 mmHg 85%
    19:00 +5°C° 0.1 mm 5 mps 756 mmHg 85%
    20:00 +5°C° 0 mm 5 mps 756 mmHg 85%
    21:00 +3°C° 0 mm 5 mps 756 mmHg 85%
    22:00 +3°C° 0 mm 5 mps 757 mmHg 84%
    23:00 +3°C° 0.1 mm 5 mps 757 mmHg 84%

    Tomorrow, 18 January, Wednesday

    Time Temperature Precipitation Wind Pressure Humidity
    00:00 +3°C° 0.1 mm 6 mps 757 mmHg 84%
    01:00 +3°C° 0.1 mm 6 mps 757 mmHg 84%
    02:00 +3°C° 0.4 mm 6 mps 757 mmHg 84%
    03:00 +3°C° 0.4 mm 6 mps 757 mmHg 84%
    04:00 +4°C° 0.4 mm 6 mps 757 mmHg 84%
    05:00 +4°C° 0.2 mm 6 mps 757 mmHg 84%
    06:00 +4°C° 0.2 mm 6 mps 758 mmHg 84%
    07:00 +3°C° 0.2 mm 6 mps 759 mmHg 84%
    08:00 +4°C° 0.2 mm 6 mps 759 mmHg 81%
    09:00 +6°C° 0.2 mm 5 mps 759 mmHg 79%
    10:00 +7°C° 0.2 mm 5 mps 760 mmHg 77%
    11:00 +7°C° 0.3 mm 5 mps 759 mmHg 76%
    12:00 +8°C° 0.3 mm 5 mps 759 mmHg 76%
    13:00 +8°C° 0.3 mm 4 mps 759 mmHg 76%
    14:00 +7°C° 0.2 mm 5 mps 759 mmHg 77%
    15:00 +7°C° 0.2 mm 6 mps 758 mmHg 78%
    16:00 +5°C° 0.2 mm 7 mps 758 mmHg 79%
    17:00 +5°C° 0.8 mm 7 mps 759 mmHg 81%
    18:00 +5°C° 0.8 mm 6 mps 759 mmHg 83%
    19:00 +4°C° 0.8 mm 6 mps 759 mmHg 84%
    20:00 +4°C° 0.7 mm 6 mps 760 mmHg 85%
    21:00 +4°C° 0.7 mm 6 mps 760 mmHg 85%
    22:00 +4°C° 0.7 mm 6 mps 761 mmHg 85%
    23:00 +5°C° 0.1 mm 5 mps 761 mmHg 85%

    Day after tomorrow, 19 January, Thursday

    Time Temperature Precipitation Wind Pressure Humidity
    00:00 +3°C° 0.1 mm 5 mps 761 mmHg 85%
    01:00 +4°C° 0.1 mm 4 mps 762 mmHg 85%
    02:00 +4°C° 0 mm 4 mps 762 mmHg 85%
    03:00 +4°C° 0 mm 4 mps 762 mmHg 84%
    04:00 +3°C° 0 mm 4 mps 762 mmHg 84%
    05:00 +3°C° 0 mm 4 mps 762 mmHg 84%
    06:00 +3°C° 0 mm 4 mps 763 mmHg 84%
    07:00 +1°C° 0 mm 5 mps 763 mmHg 84%
    08:00 +3°C° 0 mm 5 mps 763 mmHg 81%
    09:00 +5°C° 0 mm 5 mps 763 mmHg 79%
    10:00 +6°C° 0 mm 5 mps 763 mmHg 76%
    11:00 +6°C° 0.1 mm 5 mps 763 mmHg 77%
    12:00 +7°C° 0.1 mm 5 mps 763 mmHg 77%
    13:00 +7°C° 0.1 mm 5 mps 763 mmHg 78%
    14:00 +6°C° 0.2 mm 4 mps 764 mmHg 79%
    15:00 +6°C° 0.2 mm 4 mps 764 mmHg 81%
    16:00 +6°C° 0.2 mm 4 mps 764 mmHg 82%
    17:00 +5°C° 0.2 mm 4 mps 765 mmHg 83%
    18:00 +5°C° 0.2 mm 4 mps 765 mmHg 83%
    19:00 +4°C° 0.2 mm 4 mps 766 mmHg 84%
    20:00 +4°C° 0 mm 4 mps 766 mmHg 84%
    21:00 +3°C° 0 mm 4 mps 767 mmHg 84%
    22:00 +3°C° 0 mm 4 mps 767 mmHg 84%
    23:00 +3°C° 0 mm 4 mps 767 mmHg 84%

    20 January, Friday

    Time Temperature Precipitation Wind Pressure Humidity
    00:00 +1°C° 0 mm 4 mps 768 mmHg 84%
    01:00 +1°C° 0 mm 4 mps 768 mmHg 84%
    02:00 +1°C° 0 mm 4 mps 768 mmHg 83%
    03:00 +1°C° 0 mm 4 mps 768 mmHg 83%
    04:00 +1°C° 0 mm 4 mps 768 mmHg 83%
    05:00 +1°C° 0 mm 4 mps 768 mmHg 83%
    06:00 +1°C° 0 mm 4 mps 769 mmHg 82%
    07:00 +1°C° 0 mm 4 mps 769 mmHg 82%
    08:00 +3°C° 0 mm 3 mps 769 mmHg 79%
    09:00 +5°C° 0 mm 3 mps 769 mmHg 76%
    10:00 +7°C° 0 mm 3 mps 769 mmHg 74%
    11:00 +8°C° 0 mm 3 mps 769 mmHg 72%
    12:00 +9°C° 0 mm 3 mps 769 mmHg 70%
    13:00 +10°C° 0 mm 2 mps 768 mmHg 69%
    14:00 +9°C° 0.1 mm 2 mps 768 mmHg 72%
    15:00 +8°C° 0.1 mm 2 mps 768 mmHg 75%
    16:00 +8°C° 0.1 mm 2 mps 768 mmHg 78%
    17:00 +7°C° 0 mm 3 mps 769 mmHg 79%
    18:00 +5°C° 0 mm 3 mps 769 mmHg 81%
    19:00 +4°C° 0 mm 3 mps 769 mmHg 82%
    20:00 +4°C° 0 mm 3 mps 769 mmHg 82%
    21:00 +4°C° 0 mm 3 mps 770 mmHg 82%
    22:00 +4°C° 0 mm 3 mps 770 mmHg 81%
    23:00 +3°C° 0 mm 4 mps 770 mmHg 81%

    21 January, Saturday

    Time Temperature Precipitation Wind Pressure Humidity
    00:00 +3°C° 0 mm 4 mps 770 mmHg 81%
    01:00 +3°C° 0 mm 4 mps 770 mmHg 81%
    02:00 +3°C° 0 mm 4 mps 769 mmHg 81%
    03:00 +3°C° 0 mm 4 mps 769 mmHg 81%
    04:00 +1°C° 0 mm 4 mps 769 mmHg 81%
    05:00 +1°C° 0 mm 4 mps 769 mmHg 81%
    06:00 +1°C° 0 mm 4 mps 769 mmHg 80%
    07:00 +1°C° 0 mm 4 mps 769 mmHg 80%
    08:00 +4°C° 0.1 mm 4 mps 769 mmHg 77%
    09:00 +5°C° 0.1 mm 3 mps 769 mmHg 74%
    10:00 +8°C° 0.1 mm 3 mps 769 mmHg 71%
    11:00 +9°C° 0 mm 3 mps 768 mmHg 70%
    12:00 +9°C° 0 mm 3 mps 768 mmHg 69%
    13:00 +10°C° 0 mm 3 mps 768 mmHg 67%
    14:00 +10°C° 0 mm 3 mps 767 mmHg 71%
    15:00 +8°C° 0 mm 4 mps 767 mmHg 74%
    16:00 +7°C° 0 mm 4 mps 767 mmHg 77%
    17:00 +6°C° 0 mm 4 mps 767 mmHg 78%
    18:00 +6°C° 0 mm 4 mps 767 mmHg 80%
    19:00 +5°C° 0 mm 4 mps 767 mmHg 81%
    20:00 +5°C° 0 mm 4 mps 767 mmHg 81%
    21:00 +5°C° 0 mm 4 mps 767 mmHg 80%
    22:00 +5°C° 0 mm 4 mps 767 mmHg 79%
    23:00 +4°C° 0 mm 4 mps 767 mmHg 79%

    22 January, Sunday

    Time Temperature Precipitation Wind Pressure Humidity
    00:00 +4°C° 0 mm 4 mps 766 mmHg 79%
    01:00 +4°C° 0 mm 4 mps 766 mmHg 79%
    02:00 +3°C° 0 mm 5 mps 765 mmHg 80%
    03:00 +3°C° 0 mm 5 mps 765 mmHg 80%
    04:00 +3°C° 0 mm 5 mps 764 mmHg 80%
    05:00 +3°C° 0 mm 6 mps 764 mmHg 79%
    06:00 +3°C° 0 mm 6 mps 764 mmHg 78%
    07:00 +3°C° 0 mm 7 mps 764 mmHg 77%
    08:00 +4°C° 0 mm 7 mps 763 mmHg 73%
    09:00 +6°C° 0 mm 7 mps 763 mmHg 70%
    10:00 +8°C° 0 mm 7 mps 763 mmHg 67%
    11:00 +9°C° 0.3 mm 7 mps 763 mmHg 66%
    12:00 +9°C° 0.3 mm 6 mps 762 mmHg 66%
    13:00 +10°C° 0.3 mm 6 mps 762 mmHg 66%
    14:00 +9°C° 2 mm 5 mps 762 mmHg 71%
    15:00 +8°C° 2 mm 5 mps 761 mmHg 77%
    16:00 +7°C° 2 mm 4 mps 761 mmHg 82%
    17:00 +7°C° 1.4 mm 5 mps 761 mmHg 83%
    18:00 +6°C° 1.4 mm 5 mps 761 mmHg 84%
    19:00 +6°C° 1.4 mm 5 mps 761 mmHg 86%
    20:00 +5°C° 0.2 mm 6 mps 761 mmHg 85%
    21:00 +5°C° 0.2 mm 6 mps 761 mmHg 85%
    22:00 +5°C° 0.2 mm 7 mps 761 mmHg 85%
    23:00 +5°C° 0.5 mm 7 mps 761 mmHg 85%
    Show more